Regional Weather Roundup
Issued by NWS New Orleans/Baton Rouge, LA

Home | Current Version | Previous Version | Text Only | Print | Product List | Glossary On
Versions: 1 2 3 4 5 6 7 8 9 10 11 12 13 14 15 16 17 18 19 20 21 22 23 24 25 26 27 28 29 30 31 32 33 34 35 36 37 38 39 40 41 42 43 44 45 46 47 48 49 50
000
ASUS44 KLIX 060810
RWRLIX
NEW ORLEANS REGIONAL WEATHER ROUNDUP
NATIONAL WEATHER SERVICE NEW ORLEANS LA
200 AM CST FRI MAR 06 2015

NOTE: "FAIR" INDICATES FEW OR NO CLOUDS BELOW 12,000 FEET WITH NO
      SIGNIFICANT WEATHER AND/OR OBSTRUCTIONS TO VISIBILITY.
      SKY/WX - SKY CONDITION AND SIGNIFICANT WEATHER.
      TMP - AIR TEMPERATURE.     DP    - DEWPOINT TEMPERATURE.
      RH  - RELATIVE HUMIDITY.   PRES  - PRESSURE.
      HI  - HEAT INDEX.          WCI   - WIND CHILL INDEX.

*  THESE STATIONS ARE NOT NWS OR FAA STATIONS AND ARE NOT UNDER
   NWS QUALITY CONTROL.

LAZ038-040-048-061>063-065>067-069-060900-
SOUTHEAST LOUISIANA

CITY           SKY/WX    TMP DP  RH WIND       PRES   REMARKS
N.O. AUDUBON     N/A     35  27  73 MISG        N/A
N.O. INTL ARPT PTCLDY    33  23  66 N20       30.44F WCI  21
N.O. LAKEFRONT CLEAR     36  25  64 N24       30.45S WCI  24
SLIDELL        PTCLDY    31  23  72 N13G22    30.44S WCI  21
BATON ROUGE    PTCLDY    29  18  63 N7        30.49F WCI  22
BOOTHVILLE     CLOUDY    39  29  67 N13G24    30.39S WCI  31
BELLE CHASSE   PTCLDY    34  23  64 N12G22    30.42F WCI  25
BOGALUSA*        N/A     31  24  76 N8        30.48S WCI  23
GALLIANO*      MOSUNNY   37  28  69 N14G21    30.42S WCI  28
NEW ROADS*       N/A     29  14  53 N12       30.51F WCI  19
GONZALES*        N/A     31  21  67 N8        30.47F WCI  23
HAMMOND*       PTCLDY    30  21  69 N10G17    30.49S WCI  21
HOUMA*         PTCLDY    32  24  74 N10       30.43F WCI  23
PORT FOURCHON* PTSUNNY   37  27  65 N20G26    30.43F WCI  27

$$

MSZ070-080>082-060900-
SOUTHERN MISSISSIPPI

CITY           SKY/WX    TMP DP  RH WIND       PRES   REMARKS
MCCOMB         CLEAR     26  16  65 N9        30.48S WCI  17
GULFPORT       PTCLDY    31  18  58 N16G24    30.41S WCI  20
BILOXI         PTCLDY    32  21  64 N15G24    30.40F WCI  21
PASCAGOULA     PTCLDY    31  21  66 N17       30.40F WCI  19

$$

COASTAL OBSERVATIONS
LAKE AND NEARSHORE STATIONS

STATION/POSITION TIME  TEMP    WIND        PRES    WAVE
                       AIR SEA DIR/SP/G            HT/PER
                 (UTC) (F)     (DEG/KT/KT) (MB)    (FT/S)
PASCAGOULA       0800   31      10/ 19/ 25 1028.6
WAVELAND YACHT   0800   33 48   10/ 17/ 20 1030.0
GRAND ISLE       0800   38 59   20/ 21/ 27 1029.7
SOUTHWEST PASS   0800   42 43   20/ 22/ 25 1028.9
NEW CANAL        0800   35      10/ 19/ 25 1031.1
SHELL BEACH      0800   36 56  360/ 23/ 29 1029.8

OFFSHORE STATIONS

STATION/POSITION TIME  TEMP    WIND        PRES    WAVE
                       AIR SEA DIR/SP/G            HT/PER
                 (UTC) (F)     (DEG/KT/KT) (MB)    (FT/S)
64 S DAUPHIN ISL 0701   45 67   10/ 25/ 29 1026.8

$$



USA.gov is the U.S. government's official web portal to all federal, state and local government web resources and services.